Location: Unspecified
(0.0000°N, 0.0000°E)
Time: 20:17:03
(UTC+02:00)

ADEOS II - Visible Passes

Search period start: 28 April 2015 00:00
Search period end: 08 May 2015 00:00
Orbit: 800 x 803 km, 98.3° (Epoch: 27 April)

Date Brightness Start Highest point End Pass type
(mag) Time Alt. Az. Time Alt. Az. Time Alt. Az.
28 Apr 2.2 07:24:13 10° N 07:29:22 58° WNW 07:34:32 10° SSW visible
29 Apr 2.5 06:58:02 10° NNE 07:03:14 68° ESE 07:08:29 10° S visible
30 Apr 3.8 06:32:29 10° NE 06:37:05 32° E 06:41:48 10° SSE visible
01 May 4.8 06:07:56 10° ENE 06:10:53 16° E 06:14:09 10° SE visible
01 May 5.3 20:25:47 10° WSW 20:27:26 11° W 20:28:38 10° W visible
02 May 2.1 07:19:11 10° N 07:24:23 66° WNW 07:29:37 10° SSW visible
03 May 2.7 06:53:06 10° NNE 06:58:15 60° ESE 07:03:27 10° S visible
04 May 4.0 06:27:40 10° NE 06:32:05 29° E 06:36:38 10° SSE visible
05 May 4.9 06:03:25 10° ENE 06:05:52 14° E 06:08:43 10° SE visible
05 May 5.1 20:19:59 10° SW 20:22:26 13° W 20:24:28 10° WNW visible
06 May 2.1 07:14:10 10° N 07:19:23 75° WNW 07:24:39 10° SSW visible
07 May 2.9 06:48:10 10° NNE 06:53:15 53° ESE 06:58:24 10° S visible
